FW9619 Weather Reports


Display with metric or nautical units.
time (UTC)temp
F
wind
direction
speed
MPH
gust
MPH
rain 1hr
in
rain 24hr
in
rain mn
in
humidity
%
barometer
mb
20260505024544 71 0 0.0 4.0 0.00 0.00 0.00 64 1007.1
20260505023035 70 252 1.0 4.0 0.00 0.00 0.00 61 1006.9
20260505021539 71 0 0.0 3.0 0.00 0.00 0.00 61 1006.5
20260505020042 71 225 1.0 4.0 0.00 0.00 0.00 61 1006.1
20260505014540 71 154 1.0 4.0 0.00 0.00 0.00 63 1005.9
20260505013035 72 170 2.0 4.0 0.00 0.00 0.00 61 1005.6
20260505011534 74 218 1.0 4.0 0.00 0.00 0.00 58 1005.5
20260505010038 75 188 1.0 7.0 0.00 0.00 0.00 54 1005.2
20260505004541 76 196 3.0 9.0 0.00 0.00 0.00 52 1005.1
20260505003038 77 222 4.0 14.0 0.00 0.00 0.00 51 1005.0
20260505001538 78 215 5.0 14.0 0.00 0.00 0.00 50 1004.9
20260505000043 78 205 5.0 15.0 0.00 0.00 0.00 48 1005.0
20260504234537 79 184 8.0 17.0 0.00 0.00 0.00 47 1005.1
20260504233043 79 192 10.0 20.0 0.00 0.00 0.00 47 1005.1
20260504231544 80 190 7.0 15.0 0.00 0.00 0.00 47 1005.2
20260504230050 80 227 5.0 19.0 0.00 0.00 0.00 47 1005.4
20260504224537 79 236 8.0 19.0 0.00 0.00 0.00 47 1005.4
20260504223038 80 216 8.0 23.0 0.00 0.00 0.00 45 1005.6
20260504221533 81 212 7.0 23.0 0.00 0.00 0.00 46 1005.6
20260504220042 81 248 9.0 18.0 0.00 0.00 0.00 44 1005.5
20260504214538 81 217 9.0 25.0 0.00 0.00 0.00 44 1005.7
20260504213038 81 228 8.0 21.0 0.00 0.00 0.00 42 1005.6
20260504211539 81 169 8.0 18.0 0.00 0.00 0.00 43 1005.6
20260504210042 81 209 12.0 25.0 0.00 0.00 0.00 44 1005.6
20260504204547 82 188 11.0 23.0 0.00 0.00 0.00 44 1006.0
20260504203053 81 206 9.0 22.0 0.00 0.00 0.00 44 1006.2
20260504201538 81 234 10.0 25.0 0.00 0.00 0.00 44 1006.3
20260504200038 81 225 10.0 22.0 0.00 0.00 0.00 44 1006.3
20260504194537 81 226 11.0 24.0 0.00 0.00 0.00 44 1006.4
20260504193041 80 225 13.0 26.0 0.00 0.00 0.00 44 1006.5
20260504191541 80 186 11.0 20.0 0.00 0.00 0.00 47 1006.7
20260504190054 80 203 9.0 20.0 0.00 0.00 0.00 45 1006.9
20260504184538 80 227 7.0 24.0 0.00 0.00 0.00 45 1007.2
20260504183035 80 221 4.0 13.0 0.00 0.00 0.00 47 1007.3
20260504181535 79 209 8.0 20.0 0.00 0.00 0.00 47 1007.3
20260504180036 79 245 9.0 21.0 0.00 0.00 0.00 46 1007.4
20260504174540 80 207 8.0 20.0 0.00 0.00 0.00 44 1007.4
20260504173038 80 204 10.0 27.0 0.00 0.00 0.00 44 1007.3
20260504171538 79 208 10.0 24.0 0.00 0.00 0.00 46 1007.3
20260504081537 65 189 4.0 11.0 0.00 0.00 0.00 58 1010.2
20260504044539 66 238 4.0 8.0 0.00 0.00 0.00 57 1011.5
20260504043038 66 195 3.0 8.0 0.00 0.00 0.00 57 1011.6
20260504041538 66 204 3.0 7.0 0.00 0.00 0.00 56 1011.6
20260504040038 65 222 3.0 7.0 0.00 0.00 0.00 58 1011.8
20260504034542 64 209 3.0 8.0 0.00 0.00 0.00 60 1012.0
20260504033040 63 215 1.0 7.0 0.00 0.00 0.00 65 1012.1
20260504031539 60 206 2.0 5.0 0.00 0.00 0.00 72 1012.1
20260504030042 60 190 0.0 2.0 0.00 0.00 0.00 75 1012.1